Hourly Weather Roundup
Issued by NWS Central Illinois

Home | Current Version | Previous Version | Text Only | Print | Product List | Glossary On
Versions: 1 2 3 4 5 6 7 8 9 10 11 12 13 14 15 16 17 18 19 20 21 22 23 24 25 26 27 28 29 30 31 32 33 34 35 36 37 38 39 40 41 42 43 44 45 46 47 48 49 50
000
NZUS43 KILX 242010
HWRILX

AREA WEATHER ROUNDUP
NATIONAL WEATHER SERVICE, LINCOLN IL
300 PM CDT THU JUL 24 2014


CITY           SKY/WX    TMP DP  RH WIND       PRES   REMARKS
BLOOMINGTON    MOSUNNY   75  54  46 NE10      30.13F
CHAMPAIGN      MOSUNNY   77  57  50 N7        30.11F
DECATUR        SUNNY     77  56  48 NE7       30.11F
FLORA          SUNNY     76  54  46 N9        30.09F
GALESBURG      MOSUNNY   80  57  44 SE6       30.11F HX  81
JACKSONVILLE   MOSUNNY   78  55  44 E7        30.13F
LACON          MOSUNNY   77  53  44 NE6       30.11F
LAWRENCEVILLE  MOSUNNY   77  58  51 NE8       30.07F
LITCHFIELD     MOSUNNY   77  56  47 NE9       30.12F
$$


CITY           SKY/WX    TMP DP  RH WIND       PRES   REMARKS
LINCOLN        SUNNY     78  53  41 N5G16     30.09F
MACOMB         SUNNY     76  57  52 NE6       30.14F
MATTOON        MOSUNNY   77  56  48 N12       30.10F
MT CARMEL AP   MOSUNNY   81  57  44 N7        30.07F HX  81
OLNEY-NOBLE AP MOSUNNY   77  61  57 NE5       30.09S
PARIS          MOSUNNY   77  59  54 NE3       30.10F
PEORIA         SUNNY     80  53  39 E10       30.11F HX  80
PONTIAC        SUNNY     75  54  46 NE7       30.11F
RANTOUL        MOSUNNY   77  51  40 NE8       30.12F
ROBINSON       MOSUNNY   81  60  49 NE8       30.09S HX  81
SPRINGFIELD    SUNNY     79  53  40 N9        30.11F
TAYLORVILLE    MOSUNNY   73  54  49 N9        30.11F
$$

...REGIONAL REPORTS...


CITY           SKY/WX    TMP DP  RH WIND       PRES   REMARKS
CHICAGO O`HARE MOSUNNY   75  44  33 NE12      30.12F
KANKAKEE       SUNNY     74  54  49 N6        30.12F
MOLINE         MOSUNNY   77  56  48 SE8       30.10F
MOUNT VERNON   PTSUNNY   75  57  53 N6        30.10S
PITTSFIELD     MOSUNNY   78  54  43 NE6       30.13F
QUINCY         MOSUNNY   77  55  46 SE8       30.11F
ROCKFORD       PTSUNNY   76  51  41 VRB3      30.13F
$$


CITY           SKY/WX    TMP DP  RH WIND       PRES   REMARKS
BURLINGTON     SUNNY     78  57  48 MISG      30.10F
CEDAR RAPIDS   MOSUNNY   77  59  53 SE9       30.07F
DES MOINES     CLOUDY    80  58  46 S10       30.08S HX  80
KIRKSVILLE     CLOUDY    76  60  57 SE8       30.11F
OTTUMWA        PTSUNNY   77  61  57 S12       30.05F
ST LOUIS       PTSUNNY   82  54  37 NE13      30.10F HX  81
$$


CITY           SKY/WX    TMP DP  RH WIND       PRES   REMARKS
TERRE HAUTE    MOSUNNY   77  57  50 N9        30.08F
EVANSVILLE     SUNNY     80  55  42 N13       30.06F HX  80
INDIANAPOLIS   MOSUNNY   76  51  41 N10G17    30.09F
LAFAYETTE      MOSUNNY   75  52  44 VRB7      30.09F
MADISON        PTSUNNY   78  52  40 VRB5      30.10F
MILWAUKEE      MOSUNNY   71  48  43 SE9       30.13F
$$




USA.gov is the U.S. government's official web portal to all federal, state and local government web resources and services.